Location: Six Mile Lake
(44.9000°N, 79.7170°W)
Time: 16:02:33
(UTC-04:00)

NOAA 18 - Pass Details

Date: 02 July 2022
Orbit: 839 x 860 km, 98.9° (Epoch: 11 August)

Event Time Altitude Azimuth Distance (km) Brightness Sun altitude
Exits shadow 23:32:26 18° 198° (SSW) 1,970 6.7 -17.6°
Maximum altitude 23:36:12 43° 261° (W) 1,189 6.1 -17.9°
Drops below altitude 10° 23:41:28 10° 333° (NNW) 2,502 8.9 -18.3°
Sets 23:43:59 0° 340° (NNW) 3,445 10.1 -18.5°
